Location: Asni�res
(49.1337°N, 2.3555°E)
Time: 19:20:15
(UTC+00:00)

Cosmos 1535 Rocket - Pass Details

Date: 29 May 2022
Orbit: 949 x 1003 km, 83.0° (Epoch: 28 June)

Event Time Altitude Azimuth Distance (km) Brightness Sun altitude
Rises 02:52:09 0° 357° (N) 3,659 8.2 -8.3°
Reaches altitude 10° 02:55:04 10° 9° (N) 2,716 7.8 -7.9°
Maximum altitude 03:00:19 28° 67° (ENE) 1,752 6.8 -7.4°
Drops below altitude 10° 03:05:35 10° 124° (SE) 2,734 7.0 -6.7°
Sets 03:08:31 0° 136° (SE) 3,687 7.5 -6.4°
